�������l�o���
Date,Time,MP-1(��Sv/h),MP-2(��Sv/h),MP-3(��Sv/h),MP-4(��Sv/h),MP-5(��Sv/h),MP-6(��Sv/h),MP-7(��Sv/h),MP-8(��Sv/h),����,����(m/s),���J
2022/10/11,00:00,0.554,0.792,0.514,0.988,0.687,0.331,0.573,0.545,���쐼,3.5,��
2022/10/11,00:10,0.554,0.793,0.513,0.986,0.688,0.332,0.573,0.546,���쐼,4.3,��
2022/10/11,00:20,0.553,0.790,0.514,0.987,0.685,0.333,0.574,0.544,���쐼,4.3,��
2022/10/11,00:30,0.555,0.793,0.514,0.987,0.686,0.331,0.573,0.544,��,2.9,��
2022/10/11,00:40,0.555,0.793,0.516,0.988,0.687,0.332,0.572,0.545,�k��,1.2,��
2022/10/11,00:50,0.555,0.794,0.514,0.989,0.687,0.331,0.573,0.545,��,1.1,��
2022/10/11,01:00,0.554,0.793,0.516,0.987,0.687,0.332,0.573,0.543,��,2.0,��
2022/10/11,01:10,0.553,0.793,0.515,0.987,0.688,0.333,0.574,0.543,��,2.6,��
2022/10/11,01:20,0.553,0.792,0.513,0.986,0.687,0.332,0.572,0.544,���k��,2.0,�L
2022/10/11,01:30,0.553,0.795,0.514,0.987,0.688,0.332,0.573,0.544,���k��,2.6,�L
2022/10/11,01:40,0.552,0.793,0.514,0.987,0.687,0.331,0.574,0.545,�k��,3.8,�L
2022/10/11,01:50,0.555,0.793,0.517,0.987,0.690,0.334,0.573,0.545,���k��,3.0,�L
2022/10/11,02:00,0.554,0.795,0.514,0.989,0.689,0.333,0.576,0.545,���k��,4.1,�L
2022/10/11,02:10,0.554,0.794,0.514,0.990,0.688,0.333,0.573,0.545,���k��,4.8,�L
2022/10/11,02:20,0.555,0.794,0.515,0.990,0.688,0.333,0.575,0.548,�k��,2.9,�L
2022/10/11,02:30,0.557,0.796,0.516,0.986,0.689,0.333,0.575,0.546,�k��,3.3,�L
2022/10/11,02:40,0.557,0.796,0.515,0.991,0.689,0.333,0.576,0.546,�k��,4.4,�L
2022/10/11,02:50,0.555,0.797,0.515,0.988,0.689,0.333,0.576,0.546,�k��,4.8,�L
2022/10/11,03:00,0.556,0.794,0.514,0.988,0.690,0.333,0.576,0.545,�k��,4.8,�L
2022/10/11,03:10,0.555,0.794,0.514,0.991,0.689,0.333,0.576,0.547,�k��,6.2,�L
2022/10/11,03:20,0.556,0.798,0.518,0.991,0.690,0.333,0.575,0.546,�k��,7.7,�L
2022/10/11,03:30,0.556,0.796,0.517,0.990,0.691,0.333,0.576,0.547,�k��,7.8,�L
2022/10/11,03:40,0.555,0.797,0.515,0.992,0.690,0.333,0.575,0.547,�k��,7.2,�L
2022/10/11,03:50,0.556,0.796,0.516,0.990,0.692,0.334,0.575,0.548,�k��,5.7,�L
2022/10/11,04:00,0.555,0.796,0.516,0.989,0.690,0.333,0.577,0.545,�k��,5.3,��
2022/10/11,04:10,0.556,0.794,0.515,0.991,0.691,0.333,0.579,0.547,�k��,5.9,��
2022/10/11,04:20,0.554,0.792,0.515,0.990,0.690,0.334,0.577,0.547,�k��,6.3,��
2022/10/11,04:30,0.556,0.793,0.515,0.991,0.692,0.333,0.576,0.546,�k��,6.5,�L
2022/10/11,04:40,0.555,0.796,0.517,0.991,0.692,0.333,0.576,0.546,�k��,5.7,�L
2022/10/11,04:50,0.555,0.795,0.517,0.992,0.691,0.333,0.575,0.545,�k��,6.0,�L
2022/10/11,05:00,0.554,0.794,0.516,0.989,0.690,0.331,0.575,0.546,�k��,4.1,�L
2022/10/11,05:10,0.555,0.794,0.515,0.990,0.690,0.333,0.577,0.545,�k��,3.8,�L
2022/10/11,05:20,0.554,0.794,0.516,0.989,0.691,0.333,0.576,0.547,�k��,6.3,�L
2022/10/11,05:30,0.555,0.795,0.515,0.989,0.690,0.331,0.575,0.547,�k��,6.3,��
2022/10/11,05:40,0.555,0.795,0.515,0.991,0.691,0.333,0.575,0.548,�k��,7.2,��
2022/10/11,05:50,0.555,0.794,0.516,0.990,0.692,0.334,0.575,0.547,�k��,6.8,��
2022/10/11,06:00,0.555,0.793,0.515,0.991,0.693,0.334,0.576,0.548,�k�k��,4.9,��
2022/10/11,06:10,0.556,0.794,0.515,0.991,0.692,0.333,0.576,0.546,�k�k��,4.9,��
2022/10/11,06:20,0.556,0.795,0.515,0.993,0.690,0.332,0.576,0.546,�k��,5.2,��
2022/10/11,06:30,0.555,0.793,0.515,0.993,0.692,0.332,0.576,0.546,�k�k��,4.6,��
2022/10/11,06:40,0.556,0.794,0.517,0.994,0.691,0.332,0.575,0.548,�k�k��,3.4,��
2022/10/11,06:50,0.554,0.794,0.516,0.990,0.691,0.332,0.576,0.546,�k�k��,3.5,��
2022/10/11,07:00,0.554,0.795,0.516,0.991,0.692,0.334,0.575,0.547,�k�k��,3.5,��
2022/10/11,07:10,0.556,0.795,0.514,0.993,0.689,0.333,0.577,0.548,�k�k��,2.3,��
2022/10/11,07:20,0.556,0.795,0.516,0.991,0.691,0.332,0.575,0.547,�k�k��,2.3,��
2022/10/11,07:30,0.555,0.794,0.515,0.991,0.691,0.333,0.576,0.547,�k�k��,2.0,��
2022/10/11,07:40,0.556,0.792,0.515,0.993,0.692,0.333,0.576,0.547,�k��,2.8,��
2022/10/11,07:50,0.556,0.793,0.516,0.992,0.693,0.331,0.577,0.548,�k�k��,1.5,��
2022/10/11,08:00,0.558,0.796,0.514,0.993,0.691,0.332,0.575,0.545,���k��,3.4,��
2022/10/11,08:10,0.557,0.795,0.515,0.991,0.692,0.332,0.576,0.547,�k��,2.5,��
2022/10/11,08:20,0.553,0.792,0.515,0.992,0.691,0.332,0.577,0.546,�k��,2.2,��
2022/10/11,08:30,0.545,0.794,0.516,0.990,0.692,0.331,0.575,0.545,���k��,2.6,��
2022/10/11,08:40,0.543,0.794,0.515,0.993,0.691,0.331,0.576,0.545,���k��,2.2,��
2022/10/11,08:50,0.546,0.793,0.517,0.992,0.691,0.331,0.575,0.546,���k��,1.4,��
2022/10/11,09:00,0.543,0.791,0.515,0.989,0.691,0.332,0.576,0.546,�k��,2.9,��
2022/10/11,09:10,0.545,0.793,0.515,0.991,0.692,0.332,0.577,0.545,�k��,2.2,��
2022/10/11,09:20,0.549,0.793,0.515,0.990,0.690,0.331,0.576,0.545,�k��,1.7,��
2022/10/11,09:30,0.554,0.792,0.515,0.991,0.689,0.331,0.575,0.545,���k��,1.2,��
2022/10/11,09:40,0.555,0.791,0.515,0.992,0.691,0.332,0.576,0.545,���쐼,0.8,��
2022/10/11,09:50,0.555,0.792,0.516,0.992,0.691,0.331,0.577,0.546,���쐼,1.7,��
2022/10/11,10:00,0.553,0.793,0.514,0.992,0.690,0.332,0.577,0.546,�쐼,2.3,��
2022/10/11,10:10,0.555,0.793,0.514,0.994,0.690,0.331,0.576,0.545,���쐼,3.5,��
2022/10/11,10:20,0.555,0.792,0.516,0.990,0.691,0.332,0.577,0.544,��,3.9,��
2022/10/11,10:30,0.556,0.794,0.515,0.991,0.689,0.332,0.577,0.543,��,4.6,��
2022/10/11,10:40,0.554,0.793,0.515,0.994,0.686,0.333,0.577,0.544,���k��,4.3,��
2022/10/11,10:50,0.555,0.795,0.515,0.994,0.692,0.331,0.576,0.545,���k��,3.8,��
2022/10/11,11:00,0.556,0.791,0.514,0.994,0.692,0.331,0.578,0.545,���k��,2.8,��
2022/10/11,11:10,0.556,0.795,-,0.992,0.696,0.332,0.578,0.546,��,4.1,��
2022/10/11,11:20,0.559,0.793,-,0.995,0.692,0.333,0.578,0.546,���k��,6.2,��
2022/10/11,11:30,0.556,0.797,-,0.995,0.693,0.331,0.577,0.546,�k��,6.9,��
2022/10/11,11:40,0.557,0.797,-,0.992,0.695,0.333,0.578,0.545,�k��,5.0,��
2022/10/11,11:50,0.557,0.796,-,0.993,0.695,0.334,0.578,0.545,��,3.7,��
2022/10/11,12:00,0.559,0.797,-,0.993,0.696,0.332,0.578,0.547,���k��,4.6,��
2022/10/11,12:10,0.560,0.798,-,0.994,0.694,0.333,0.579,0.547,���k��,4.7,��
2022/10/11,12:20,0.558,0.798,-,0.996,0.696,0.332,0.580,0.545,���k��,5.7,��
2022/10/11,12:30,0.558,0.800,-,0.997,0.695,0.332,0.580,0.547,���k��,7.8,��
2022/10/11,12:40,0.559,0.799,-,0.997,0.696,0.333,0.579,0.548,���k��,5.9,��
2022/10/11,12:50,0.558,0.800,-,0.998,0.696,0.333,0.578,0.547,���k��,5.0,��
2022/10/11,13:00,0.560,0.799,-,0.998,0.696,0.332,0.578,0.548,��,4.5,��
2022/10/11,13:10,0.559,0.801,0.518,0.998,0.696,0.334,0.578,0.547,���k��,5.4,��
2022/10/11,13:20,0.561,0.799,0.520,0.999,0.698,0.333,0.580,0.547,��,8.0,��
2022/10/11,13:30,0.558,0.797,0.515,0.998,0.697,0.333,0.578,0.548,��,10.0,��
2022/10/11,13:40,0.559,0.796,0.520,1.000,0.696,0.333,0.580,0.547,���k��,9.7,��
2022/10/11,13:50,0.560,0.796,0.519,0.999,0.697,0.333,0.578,0.548,��,9.9,��
2022/10/11,14:00,0.560,0.797,0.520,0.999,0.697,0.333,0.580,0.548,��,10.8,��
2022/10/11,14:10,0.560,0.798,0.519,0.999,0.699,0.334,0.579,0.547,��,11.3,��
2022/10/11,14:20,0.560,0.800,0.519,0.999,0.698,0.334,0.580,0.549,��,10.7,��
2022/10/11,14:30,0.562,0.802,0.518,0.999,0.699,0.334,0.579,0.548,���k��,10.4,��
2022/10/11,14:40,0.560,0.798,0.522,1.001,0.701,0.333,0.578,0.549,��,10.4,��
2022/10/11,14:50,0.559,0.801,0.520,1.001,0.699,0.334,0.580,0.548,���k��,11.7,��
2022/10/11,15:00,0.560,0.800,0.520,1.000,0.699,0.334,0.579,0.550,���k��,9.8,��
2022/10/11,15:10,0.561,0.802,0.518,1.000,0.698,0.333,0.578,0.549,��,9.5,��
2022/10/11,15:20,0.559,0.800,0.518,0.999,0.697,0.333,0.579,0.549,��,9.6,��
2022/10/11,15:30,0.559,0.801,0.519,1.002,0.699,0.332,0.579,0.549,���k��,6.2,��
2022/10/11,15:40,0.561,0.800,0.518,1.001,0.698,0.333,0.581,0.549,��,5.0,��
2022/10/11,15:50,0.560,0.802,0.519,1.002,0.698,0.333,0.577,0.550,���k��,7.7,��
2022/10/11,16:00,0.560,0.802,0.518,1.004,0.700,0.334,0.578,0.551,���k��,7.8,��
2022/10/11,16:10,0.559,0.803,0.519,1.003,0.699,0.336,0.577,0.551,��,6.8,��
2022/10/11,16:20,0.558,0.801,0.520,1.005,0.699,0.335,0.578,0.550,��,6.0,��
2022/10/11,16:30,0.559,0.803,0.521,1.004,0.698,0.334,0.579,0.550,���k��,6.0,��
2022/10/11,16:40,0.561,0.806,0.519,1.003,0.699,0.334,0.578,0.549,��,5.9,��
2022/10/11,16:50,0.561,0.804,0.519,1.004,0.700,0.334,0.577,0.549,��,5.8,��
2022/10/11,17:00,0.560,0.804,0.518,1.002,0.701,0.333,0.577,0.551,��,6.7,��
2022/10/11,17:10,0.559,0.806,0.519,1.003,0.701,0.335,0.579,0.551,��,6.8,��
2022/10/11,17:20,0.561,0.807,0.521,1.004,0.701,0.335,0.579,0.553,���k��,6.8,��
2022/10/11,17:30,0.560,0.806,0.520,1.006,0.702,0.335,0.581,0.554,���k��,6.7,��
2022/10/11,17:40,0.561,0.805,0.520,1.006,0.699,0.333,0.580,0.553,��,6.4,��
2022/10/11,17:50,0.561,0.806,0.522,1.006,0.701,0.335,0.579,0.552,��,8.0,��
2022/10/11,18:00,0.561,0.804,0.520,1.006,0.702,0.333,0.578,0.552,��,8.7,��
2022/10/11,18:10,0.562,0.805,0.522,1.006,0.702,0.334,0.580,0.553,��,6.7,��
2022/10/11,18:20,0.562,0.806,0.522,1.006,0.702,0.334,0.580,0.553,��,6.8,��
2022/10/11,18:30,0.563,0.805,0.521,1.006,0.703,0.333,0.579,0.554,��,5.8,��
2022/10/11,18:40,0.561,0.806,0.521,1.006,0.702,0.333,0.579,0.552,���k��,5.8,��
2022/10/11,18:50,0.562,0.806,0.521,1.005,0.702,0.334,0.580,0.552,��,8.2,��
2022/10/11,19:00,0.561,0.807,0.521,1.006,0.699,0.335,0.580,0.552,���k��,6.4,��
2022/10/11,19:10,0.561,0.805,0.523,1.006,0.702,0.333,0.580,0.552,���k��,5.4,��
2022/10/11,19:20,0.562,0.805,0.523,1.008,0.703,0.334,0.580,0.551,���k��,4.9,��
2022/10/11,19:30,0.560,0.807,0.522,1.006,0.703,0.335,0.579,0.550,���k��,5.5,��
2022/10/11,19:40,0.563,0.806,0.520,1.006,0.703,0.335,0.581,0.552,���k��,5.9,��
2022/10/11,19:50,0.561,0.808,0.522,1.004,0.702,0.335,0.580,0.554,���k��,5.8,��
2022/10/11,20:00,0.562,0.808,0.521,1.006,0.700,0.333,0.580,0.552,���k��,4.9,��
2022/10/11,20:10,0.561,0.806,0.521,1.005,0.704,0.334,0.580,0.550,�k��,4.6,��
2022/10/11,20:20,0.561,0.806,0.520,1.006,0.704,0.334,0.581,0.551,�k��,4.4,��
2022/10/11,20:30,0.563,0.806,0.520,1.006,0.702,0.335,0.581,0.551,�k��,4.6,��
2022/10/11,20:40,0.561,0.805,0.519,1.004,0.703,0.335,0.582,0.551,�k��,5.5,��
2022/10/11,20:50,0.562,0.809,0.520,1.006,0.702,0.333,0.582,0.551,�k��,5.5,��
2022/10/11,21:00,0.562,0.806,0.521,1.006,0.703,0.334,0.581,0.552,�k��,7.0,��
2022/10/11,21:10,0.562,0.807,0.522,1.007,0.703,0.334,0.580,0.551,�k��,6.5,��
2022/10/11,21:20,0.561,0.807,0.522,1.006,0.703,0.334,0.581,0.551,�k��,5.3,��
2022/10/11,21:30,0.560,0.807,0.519,1.006,0.702,0.336,0.581,0.550,�k��,4.9,��
2022/10/11,21:40,0.561,0.806,0.520,1.006,0.702,0.335,0.579,0.549,�k��,4.8,��
2022/10/11,21:50,0.562,0.806,0.520,1.006,0.704,0.334,0.579,0.550,�k��,6.0,��
2022/10/11,22:00,0.561,0.808,0.523,1.006,0.704,0.334,0.580,0.551,�k��,5.9,��
2022/10/11,22:10,0.562,0.805,0.522,1.007,0.703,0.335,0.580,0.550,�k��,6.2,��
2022/10/11,22:20,0.562,0.807,0.520,1.006,0.703,0.335,0.582,0.550,�k��,5.5,��
2022/10/11,22:30,0.563,0.806,0.521,1.006,0.705,0.335,0.580,0.550,�k��,5.5,��
2022/10/11,22:40,0.562,0.805,0.520,1.006,0.704,0.334,0.580,0.550,�k�k��,6.4,��
2022/10/11,22:50,0.560,0.807,0.520,1.005,0.704,0.334,0.582,0.550,�k�k��,4.5,��
2022/10/11,23:00,0.562,0.805,0.521,1.004,0.703,0.335,0.582,0.550,�k�k��,4.1,��
2022/10/11,23:10,0.561,0.806,0.520,1.006,0.703,0.335,0.581,0.549,�k��,4.4,��
2022/10/11,23:20,0.561,0.807,0.519,1.006,0.703,0.333,0.581,0.549,�k��,2.3,��
2022/10/11,23:30,0.560,0.806,0.520,1.006,0.703,0.334,0.581,0.550,�k,2.0,��
2022/10/11,23:40,0.560,0.805,0.520,1.006,0.702,0.334,0.580,0.550,�k�k��,3.0,��
2022/10/11,23:50,0.560,0.808,0.519,1.005,0.706,0.333,0.580,0.549,�k�k��,2.5,��
